Eindhoven, Netherlands

9:18 AM CEST on June 23, 2017 (GMT +0200)
Eindhoven Air Base

Weather History for EHEH - December, 2012

Change the Weather History Date:

Friday, December 28, 2012

  Actual Average Record
Temperature  
Mean Temperature 42 °F -  
Max Temperature 50 °F 41 °F 52 °F (2015)
Min Temperature 35 °F 31 °F 12 °F (1996)
Degree Days  
Heating Degree Days 22    
Moisture  
Dew Point 42 °F    
Average Humidity 98    
Maximum Humidity 100    
Minimum Humidity 87    
Precipitation  
Precipitation 0.08 in - - ()
Sea Level Pressure  
Sea Level Pressure 30.16 in    
Wind  
Wind Speed 5 mph ()    
Max Wind Speed 14 mph    
Max Gust Speed -    
Visibility 3.1 miles    
Events Fog , Rain    
Averages and records for this station are not official NWS values.
T = Trace of Precipitation, MM = Missing Value Source: Averaged Metar Reports

Daily Weather History Graph

Daily Weather History Graph

Search for Another Location

Airport or City:

Trip Planner

Search our weather history database for the weather conditions in past years. The results will help you decide how hot, cold, wet, or windy it might be!

Date:

Astronomy

Dec. 28, 2012 Rise Set
Actual Time 8:43 AM CET 4:36 PM CET
Civil Twilight 8:03 AM CET 5:16 PM CET
Nautical Twilight 7:20 AM CET 5:59 PM CET
Astronomical Twilight 6:39 AM CET 6:40 PM CET
Moon 5:05 PM CET (12/28) 8:21 AM CET (12/28)
Length of Visible Light 9h 13m
Length of Day
7h 52m
Full, 100% of the Moon is Illuminated
Dec 28
Full
Jan 5
Last Quarter
Jan 11
New
Jan 19
First Quarter
Jan 27
Full

Hourly Weather History & Observations

Time (CET) Temp. Windchill Dew Point Humidity Pressure Visibility Wind Dir Wind Speed Gust Speed Precip Events Conditions
12:25 AM 42.8 °F 39.3 °F 42.8 °F 100% 30.04 in 3.7 mi NW 5.8 mph - N/A   Overcast
12:55 AM 42.8 °F 38.6 °F 41.0 °F 93% 30.04 in 5.0 mi NNW 6.9 mph - N/A   Overcast
1:00 AM 42 °F - 42 °F 98% 30.08 in 5 mi NNW 6.7 mph - -   Mist
1:08 AM 42.8 °F 40.1 °F 41.0 °F 93% 30.06 in 5.0 mi NNW 4.6 mph - N/A   Overcast
1:25 AM 42.8 °F 41.1 °F 41.0 °F 93% 30.06 in 5.0 mi NNW 3.5 mph - N/A   Overcast
1:42 AM 41.0 °F - 41.0 °F 100% 30.06 in 4.3 mi West 2.3 mph - N/A   Mostly Cloudy
1:50 AM 41.0 °F - 39.2 °F 93% 30.09 in - WSW 2.3 mph - N/A   Overcast
1:55 AM 41.0 °F 39.0 °F 39.2 °F 93% 30.09 in 3.1 mi West 3.5 mph - N/A   Overcast
2:02 AM 39.2 °F 37.0 °F 39.2 °F 100% 30.09 in - West 3.5 mph - N/A   Overcast
2:12 AM 39.2 °F - 37.4 °F 93% 30.09 in - WSW 2.3 mph - N/A   Mostly Cloudy
2:25 AM 39.2 °F - 39.2 °F 100% 30.09 in 0.5 mi SW 1.2 mph - N/A Fog Fog
2:31 AM 39.2 °F 37.0 °F 39.2 °F 100% 30.09 in 1.0 mi WSW 3.5 mph - N/A   Scattered Clouds
2:41 AM 37.4 °F 34.9 °F 37.4 °F 100% 30.12 in 0.5 mi West 3.5 mph - N/A Fog Fog
2:47 AM 37.4 °F - 37.4 °F 100% 30.12 in - West 2.3 mph - N/A Fog Fog
2:51 AM 39.2 °F - 39.2 °F 100% 30.12 in 0.6 mi NW 1.2 mph - N/A Fog Fog
2:55 AM 39.2 °F - 39.2 °F 100% 30.12 in 0.7 mi NNE 1.2 mph - N/A   Overcast
2:59 AM 39.2 °F - 39.2 °F 100% 30.12 in 0.4 mi NE 1.2 mph - N/A Fog Fog
3:03 AM 39.2 °F - 39.2 °F 100% 30.12 in 0.6 mi ENE 1.2 mph - N/A   Overcast
3:07 AM 39.2 °F - 39.2 °F 100% 30.12 in - NE 1.2 mph - N/A Fog Fog
3:25 AM 37.4 °F 34.9 °F 37.4 °F 100% 30.15 in - North 3.5 mph - N/A Fog Fog
3:26 AM 37.4 °F - 37.4 °F 100% 30.15 in 0.5 mi North 2.3 mph - N/A Fog Fog
3:41 AM 39.2 °F - 39.2 °F 100% 30.15 in 0.6 mi NNE 2.3 mph - N/A Fog Fog
3:47 AM 39.2 °F - 39.2 °F 100% 30.15 in 0.4 mi NE 1.2 mph - N/A Fog Fog
3:55 AM 39.2 °F - 39.2 °F 100% 30.15 in 0.4 mi ENE 1.2 mph - N/A Fog Fog
4:00 AM 37 °F - 37 °F 100% 30.16 in 0 mi Calm Calm - - Fog Fog
4:25 AM 35.6 °F - 35.6 °F 100% 30.15 in 0.3 mi SW 2.3 mph - N/A Fog Fog
4:29 AM 35.6 °F 32.8 °F 35.6 °F 100% 30.15 in 0.2 mi SW 3.5 mph - N/A Fog Fog
4:33 AM 37.4 °F 34.9 °F 37.4 °F 100% 30.15 in 0.3 mi SW 3.5 mph - N/A Fog Fog
4:44 AM 37.4 °F - 37.4 °F 100% 30.15 in 0.5 mi SW 2.3 mph - N/A Fog Fog
4:49 AM 37.4 °F - 37.4 °F 100% 30.15 in 0.4 mi SW 2.3 mph - N/A Fog Fog
4:55 AM 37.4 °F - 37.4 °F 100% 30.15 in - SSE 1.2 mph - N/A Fog Fog
5:07 AM 37.4 °F - 37.4 °F 100% 30.15 in 1.1 mi SSE 1.2 mph - N/A   Overcast
5:08 AM 37.4 °F - 37.4 °F 100% 30.15 in 0.8 mi South 2.3 mph - N/A   Overcast
5:15 AM 35.6 °F - 35.6 °F 100% 30.15 in - SSW 2.3 mph - N/A Fog Fog
5:20 AM 37.4 °F - 37.4 °F 100% 30.18 in 0.5 mi SW 2.3 mph - N/A Fog Fog
5:25 AM 37.4 °F 34.9 °F 37.4 °F 100% 30.18 in 0.4 mi WSW 3.5 mph - N/A Fog Fog
5:29 AM 37.4 °F 34.9 °F 37.4 °F 100% 30.18 in 0.5 mi WSW 3.5 mph - N/A Fog Fog
5:35 AM 37.4 °F 34.9 °F 37.4 °F 100% 30.18 in - SW 3.5 mph - N/A Fog Fog
5:36 AM 37.4 °F - 37.4 °F 100% 30.18 in 0.6 mi SW 2.3 mph - N/A   Mostly Cloudy
5:49 AM 37.4 °F - 37.4 °F 100% 30.18 in 1.1 mi SE 1.2 mph - N/A   Overcast
5:55 AM 37.4 °F - 37.4 °F 100% 30.18 in 1.2 mi SE 1.2 mph - N/A   Overcast
6:25 AM 39.2 °F 37.0 °F 39.2 °F 100% 30.18 in 1.1 mi ESE 3.5 mph - N/A   Overcast
6:32 AM 39.2 °F 37.0 °F 39.2 °F 100% 30.21 in 1.4 mi SE 3.5 mph - N/A   Overcast
6:33 AM 39.2 °F 37.0 °F 39.2 °F 100% 30.21 in 1.4 mi SE 3.5 mph - N/A   Overcast
6:55 AM 39.2 °F 37.0 °F 39.2 °F 100% 30.21 in 1.3 mi SSE 3.5 mph - N/A   Overcast
7:00 AM 39 °F - 39 °F 100% 30.22 in 1 mi SSE 4.5 mph - -   Mist
7:17 AM 39.2 °F 37.0 °F 39.2 °F 100% 30.21 in 1.6 mi SSE 3.5 mph - N/A   Mostly Cloudy
7:18 AM 41.0 °F 39.0 °F 41.0 °F 100% 30.21 in 1.6 mi SE 3.5 mph - N/A   Mostly Cloudy
7:19 AM 41.0 °F 39.0 °F 41.0 °F 100% 30.21 in 1.6 mi SE 3.5 mph - N/A   Mostly Cloudy
7:25 AM 41.0 °F 39.0 °F 41.0 °F 100% 30.21 in 1.6 mi SE 3.5 mph - N/A   Overcast
7:51 AM 41.0 °F 39.0 °F 41.0 °F 100% 30.21 in 1.3 mi SSE 3.5 mph - N/A   Overcast
7:55 AM 41.0 °F 39.0 °F 41.0 °F 100% 30.21 in 1.3 mi SSE 3.5 mph - N/A   Overcast
7:56 AM 41.0 °F 39.0 °F 41.0 °F 100% 30.21 in 1.3 mi SSE 3.5 mph - N/A   Overcast
8:03 AM 41.0 °F 38.0 °F 41.0 °F 100% 30.21 in 1.3 mi SE 4.6 mph - N/A   Overcast
8:05 AM 41.0 °F 38.0 °F 41.0 °F 100% 30.21 in 1.3 mi SE 4.6 mph - N/A   Overcast
8:06 AM 41.0 °F 38.0 °F 41.0 °F 100% 30.21 in 1.3 mi SE 4.6 mph - N/A   Overcast
8:25 AM 41.0 °F 38.0 °F 41.0 °F 100% 30.21 in 1.4 mi SSE 4.6 mph - N/A   Overcast
8:55 AM 41.0 °F 37.1 °F 41.0 °F 100% 30.21 in 1.4 mi SSE 5.8 mph - N/A   Mostly Cloudy
9:12 AM 42.8 °F 39.3 °F 42.8 °F 100% 30.24 in 1.6 mi SSE 5.8 mph - N/A   Mostly Cloudy
9:25 AM 42.8 °F 39.3 °F 41.0 °F 93% 30.24 in 1.8 mi SSE 5.8 mph - N/A   Mostly Cloudy
9:29 AM 42.8 °F 39.3 °F 42.8 °F 100% 30.24 in 1.9 mi SSE 5.8 mph - N/A   Mostly Cloudy
9:41 AM 42.8 °F 39.3 °F 42.8 °F 100% 30.24 in - South 5.8 mph - N/A   Mostly Cloudy
9:45 AM 42.8 °F 39.3 °F 42.8 °F 100% 30.24 in - South 5.8 mph - N/A   Mostly Cloudy
9:49 AM 42.8 °F 38.6 °F 42.8 °F 100% 30.24 in - South 6.9 mph - N/A   Mostly Cloudy
9:55 AM 42.8 °F 38.6 °F 42.8 °F 100% 30.24 in - South 6.9 mph - N/A   Mostly Cloudy
9:57 AM 42.8 °F 38.6 °F 42.8 °F 100% 30.24 in 3.1 mi South 6.9 mph - N/A   Mostly Cloudy
9:58 AM 42.8 °F 38.6 °F 42.8 °F 100% 30.24 in - South 6.9 mph - N/A   Mostly Cloudy
10:00 AM 42 °F - 42 °F 100% 30.25 in 3 mi South 6.7 mph - -   Mist
10:01 AM 42.8 °F 38.6 °F 42.8 °F 100% 30.24 in 3.1 mi South 6.9 mph - N/A   Overcast
10:02 AM 42.8 °F 38.6 °F 42.8 °F 100% 30.24 in 3.1 mi South 6.9 mph - N/A   Overcast
10:25 AM 42.8 °F 38.6 °F 42.8 °F 100% 30.24 in 3.1 mi South 6.9 mph - N/A   Mostly Cloudy
10:55 AM 42.8 °F 38.6 °F 42.8 °F 100% 30.24 in 4.3 mi South 6.9 mph - N/A   Overcast
11:25 AM 44.6 °F 40.2 °F 42.8 °F 93% 30.24 in 6.2 mi South 8.1 mph - N/A   Overcast
11:55 AM 44.6 °F 40.2 °F 42.8 °F 93% 30.21 in 6.2 mi South 8.1 mph - N/A   Mostly Cloudy
12:25 PM 44.6 °F 40.2 °F 42.8 °F 93% 30.21 in 6.2 mi South 8.1 mph - N/A   Mostly Cloudy
12:55 PM 44.6 °F 39.7 °F 42.8 °F 93% 30.21 in 6.2 mi South 9.2 mph - N/A   Mostly Cloudy
1:00 PM 45 °F - 43 °F 89% 30.22 in 10 mi South 8.9 mph - -   Partly Cloudy
1:25 PM 46.4 °F 42.4 °F 42.8 °F 87% 30.18 in 6.2 mi South 8.1 mph - N/A   Light Drizzle
1:55 PM 46.4 °F 41.9 °F 42.8 °F 87% 30.18 in 6.2 mi South 9.2 mph - N/A Rain Light Rain
2:25 PM 44.6 °F 39.7 °F 42.8 °F 93% 30.18 in 6.2 mi South 9.2 mph - N/A Rain Light Rain
2:55 PM 44.6 °F 39.2 °F 44.6 °F 100% 30.15 in 6.2 mi South 10.4 mph - N/A Rain Light Rain
3:09 PM 44.6 °F 38.8 °F 44.6 °F 100% 30.15 in 6.2 mi South 11.5 mph - N/A Rain Light Rain
3:19 PM 44.6 °F 38.8 °F 44.6 °F 100% 30.15 in 6.2 mi South 11.5 mph - N/A Rain Light Rain Showers
3:25 PM 44.6 °F 38.8 °F 44.6 °F 100% 30.15 in 6.2 mi South 11.5 mph - N/A Rain Light Rain Showers
3:55 PM 44.6 °F 38.8 °F 44.6 °F 100% 30.15 in 6.2 mi South 11.5 mph - N/A Rain Light Rain Showers
4:25 PM 44.6 °F 38.8 °F 44.6 °F 100% 30.12 in 6.2 mi South 11.5 mph - N/A   Mostly Cloudy
4:55 PM 46.4 °F 40.7 °F 44.6 °F 93% 30.12 in 3.1 mi South 12.7 mph - N/A   Overcast
4:56 PM 46.4 °F 40.7 °F 44.6 °F 93% 30.12 in - South 12.7 mph - N/A   Mostly Cloudy
5:25 PM 46.4 °F 40.7 °F 44.6 °F 93% 30.12 in 3.1 mi South 12.7 mph - N/A   Drizzle
5:55 PM 46.4 °F 40.7 °F 46.4 °F 100% 30.12 in - South 12.7 mph - N/A   Drizzle
6:25 PM 46.4 °F 40.7 °F 46.4 °F 100% 30.12 in 6.2 mi South 12.7 mph - N/A   Overcast
6:55 PM 46.4 °F 41.1 °F 46.4 °F 100% 30.09 in 6.2 mi South 11.5 mph - N/A   Overcast
7:00 PM 47 °F - 46 °F 97% 30.13 in 11 mi SSW 13.4 mph - - Rain Drizzle
7:25 PM 46.4 °F 40.7 °F 46.4 °F 100% 30.09 in 3.7 mi SSW 12.7 mph - N/A   Light Drizzle
7:35 PM 46.4 °F 40.7 °F 46.4 °F 100% 30.09 in 6.2 mi SSW 12.7 mph - N/A   Overcast
7:55 PM 48.2 °F - 46.4 °F 93% 30.09 in 6.2 mi SSW 12.7 mph - N/A   Overcast
8:25 PM 48.2 °F - 46.4 °F 93% 30.09 in 6.2 mi South 12.7 mph - N/A   Overcast
8:55 PM 48.2 °F - 46.4 °F 93% 30.09 in 3.1 mi South 11.5 mph - N/A Rain Light Rain
9:01 PM 48.2 °F - 48.2 °F 100% 30.09 in 3.1 mi SSW 10.4 mph - N/A Rain Light Rain
9:18 PM 48.2 °F - 48.2 °F 100% 30.09 in 5.6 mi South 10.4 mph - N/A   Light Drizzle
9:25 PM 48.2 °F - 48.2 °F 100% 30.09 in 3.7 mi SSW 11.5 mph - N/A   Overcast
9:55 PM 48.2 °F - 48.2 °F 100% 30.09 in 3.7 mi South 12.7 mph - N/A   Overcast
10:00 PM 48 °F - 48 °F 99% 30.12 in 4 mi South 13.4 mph - - Rain Rain
10:25 PM 48.2 °F - 48.2 °F 100% 30.09 in 6.2 mi South 12.7 mph - N/A   Overcast
10:55 PM 48.2 °F - 48.2 °F 100% 30.09 in 6.2 mi South 11.5 mph - N/A   Mostly Cloudy
11:25 PM 50.0 °F - 48.2 °F 94% 30.09 in 6.2 mi South 11.5 mph - N/A   Mostly Cloudy
11:55 PM 50.0 °F - 48.2 °F 94% 30.09 in 6.2 mi South 13.8 mph - N/A   Mostly Cloudy